Regional Weather Roundup
Issued by NWS Northern Indiana

Home | Current Version | Previous Version | Text Only | Print | Product List | Glossary On
Versions: 1 2 3 4 5 6 7 8 9 10 11 12 13 14 15 16 17 18 19 20 21 22 23 24 25 26 27 28 29 30 31 32 33 34 35 36 37 38 39 40 41 42 43 44 45 46 47 48 49 50
000
ASUS43 KIWX 211210
RWRIWX

KIWX WEATHER ROUNDUP
NATIONAL WEATHER SERVICE NORTHERN INDIANA
800 AM EDT SUN SEP 21 2014

NOTE: "FAIR" INDICATES FEW OR NO CLOUDS BELOW 12,000 FEET WITH NO
SIGNIFICANT WEATHER AND/OR OBSTRUCTIONS TO VISIBILITY.

* THESE STATIONS ARE NOT UNDER NWS QUALITY CONTROL. THEY ALSO MAY NOT
  REPORT WEATHER SUCH AS PRECIPITATION OR FOG.

INZ001>027-211300-
NORTHERN INDIANA

CITY           SKY/WX    TMP DP  RH WIND       PRES   REMARKS
GARY*          CLEAR     59  54  82 W12       29.82R
VALPARAISO     CLEAR     57  53  86 W10       29.82R
6HR MIN TEMP:  57; 6HR MAX TEMP:  69; 6HR PCP:  0.06;

MICHIGAN CITY* CLEAR     59  50  72 W9G16     29.79S
LAPORTE*       CLEAR     57  53  86 W12G17    29.80R
6HR MIN TEMP:  57; 6HR MAX TEMP:  67; 6HR PCP:  0.04;

KNOX*          CLEAR     58  53  85 W10       29.80R
6HR MIN TEMP:  58; 6HR MAX TEMP:  69;

SOUTH BEND     PTCLDY    60  52  74 W16       29.77R
6HR MIN TEMP:  60; 6HR MAX TEMP:  69; 6HR PCP:  0.01;

ELKHART*       PTCLDY    59  52  77 W15G21    29.77
GOSHEN         PTCLDY   N/A N/A N/A W13       29.76R
                                      6HR PCP:  0.02;

MONTICELLO*    CLEAR     58  55  90 W9        29.84R
6HR MIN TEMP:  58; 6HR MAX TEMP:  68;

LOGANSPORT*    CLEAR     59  54  82 W9        29.83R
ROCHESTER*     CLEAR     61  59  94 W10       29.81R
WARSAW*        PTCLDY    61  57  88 W18       29.77S
ANGOLA*        PTCLDY    63  54  72 W9        29.73R
FORT WAYNE     PTCLDY    63  59  87 W18       29.77R
6HR MIN TEMP:  63; 6HR MAX TEMP:  69; 6HR PCP:  0.04;

HUNTINGTON*    CLOUDY    63  60  88 W6        29.78R
6HR MIN TEMP:  63; 6HR MAX TEMP:  69; 6HR PCP:  0.24;

PERU/GRISSOM   PTCLDY    60  60 100 W15       29.82R
6HR MIN TEMP:  60; 6HR MAX TEMP:  70;

MARION*        PTCLDY    64  60  89 W16       29.82R
6HR MIN TEMP:  40; 6HR MAX TEMP:  90; 6HR PCP:  0.23;


$$
INZ028>050-211300-
CENTRAL INDIANA

CITY           SKY/WX    TMP DP  RH WIND       PRES   REMARKS
LAFAYETTE      CLEAR     59  57  93 W12       29.86R
6HR MIN TEMP:  58; 6HR MAX TEMP:  68;

KOKOMO*        PTCLDY    63  55  77 W16       29.83R
6HR MIN TEMP:  63; 6HR MAX TEMP:  70;

MUNCIE*        MOCLDY    68  63  84 W13G22    29.81R
6HR MIN TEMP:  68; 6HR MAX TEMP:  70; 6HR PCP:  0.07;

INDIANAPOLIS   MOCLDY    68  63  84 W16       29.85R
6HR MIN TEMP:  68; 6HR MAX TEMP:  73; 6HR PCP:  0.04;


$$
MIZ043>046-050>051-056>058-064>065-071>073-077>080-211300-
SOUTHWEST LOWER MICHIGAN

CITY           SKY/WX    TMP DP  RH WIND       PRES   REMARKS
BATTLE CREEK   MOCLDY    60  56  86 W14       29.71R
6HR MIN TEMP:  60; 6HR MAX TEMP:  68; 6HR PCP:  0.15;

BENTON HARBOR  PTCLDY    59  51  75 W17G29    29.76R
6HR MIN TEMP:  59; 6HR MAX TEMP:  69; 6HR PCP:  0.03;

COLDWATER*     MOCLDY    62  57  86 W12       29.72R
6HR MIN TEMP:  62; 6HR MAX TEMP:  69;

HILLSDALE*     MOCLDY    62  60  93 W15G22    29.71R
HOLLAND        MOCLDY    60  54  80 W17G31    29.70S
6HR MIN TEMP:  60; 6HR MAX TEMP:  64; 6HR PCP:  0.24;

GRAND RAPIDS   CLOUDY    60  56  86 W13       29.68R
6HR MIN TEMP:  60; 6HR MAX TEMP:  66; 6HR PCP:  0.40;

KALAMAZOO      CLOUDY    61  56  83 W7        29.72R
6HR MIN TEMP:  60; 6HR MAX TEMP:  69; 6HR PCP:  0.31;

STURGIS*       MOCLDY    61  55  82 W9        29.73R
THREE RIVERS*  MOCLDY    61  55  82 W13G20    29.74R

$$
OHZ001>008-015>018-024>025-211300-
NORTHWEST OHIO

CITY           SKY/WX    TMP DP  RH WIND       PRES   REMARKS
WAUSEON*       FAIR      63  59  88 SW13      29.70R
DEFIANCE       CLEAR    N/A N/A N/A VRB7G16   29.73R
                                      6HR PCP:  0.02;

FINDLAY        MOCLDY    70  66  87 W16       29.72R
6HR MIN TEMP:  66; 6HR MAX TEMP:  71; 6HR PCP:  0.12;

TOLEDO EXPRESS CLEAR     64  59  83 W18       29.70R
6HR MIN TEMP:  64; 6HR MAX TEMP:  68;

TOLEDO METCALF PTCLDY    67  59  75 W14G28    29.70R
6HR MIN TEMP:  65; 6HR MAX TEMP:  69; 6HR PCP: TRACE;

LIMA           MOCLDY    69  65  86 W16G24    29.75R
6HR MIN TEMP:  69; 6HR MAX TEMP:  71; 6HR PCP:  0.20;


$$
AND FOR LAKE MICHIGAN COASTAL AND OPEN LAKE BUOY OBSERVATIONS

STATION/POSITION TEMP    WIND        PRES    VSBY  WAVE
                 AIR SEA DIR/SP/G                  HT/PER
                 (F)     (DEG/KT/KT) (MB)    (MI)  (FT/S)
CALUMET HARBOR    59     250/  4/ 11 1008.2S
MICHIGAN CITY     62     240/ 23/ 26   N/A
SAINT JOSEPH      63     260/ 18/ 23 1008.5S
SOUTH LAKE BUOY   60 63  260/ 23/ 27 1006.2R         5/ 5
4 MI NW BRIDGMAN  62 65  270/ 21/ 29   N/A           8/ 5
MICHIGAN CITY     63 65  280/ 17/ 23   N/A           6/ 5

$$
&&


USA.gov is the U.S. government's official web portal to all federal, state and local government web resources and services.